Location: Coleto Creek Park and Reservoir
(28.7196°N, 97.1740°W)
Time: 03:25:30
(UTC-05:00)

Hubble Space Telescope - Visible Passes

Search period start: 26 July 2016 00:00
Search period end: 05 August 2016 00:00
Orbit: 539 x 543 km, 28.5° (Epoch: 25 July)

Date Brightness Start Highest point End Pass type
(mag) Time Alt. Az. Time Alt. Az. Time Alt. Az.
28 Jul 3.3 05:42:29 10° SSE 05:43:12 10° SSE 05:43:54 10° SE visible
29 Jul 3.0 05:31:41 11° S 05:33:23 14° SSE 05:35:33 10° ESE visible
30 Jul 2.6 05:22:31 16° S 05:23:34 18° SSE 05:26:25 10° ESE visible
31 Jul 2.3 05:13:19 22° SSE 05:13:46 23° SSE 05:17:04 10° ESE visible
01 Aug 2.0 05:04:05 28° SSE 05:04:05 28° SSE 05:07:35 10° E visible
02 Aug 1.9 04:54:51 33° SE 04:54:51 33° SE 04:58:00 10° E visible
03 Aug 2.0 04:45:36 34° ESE 04:45:36 34° ESE 04:48:23 10° E visible
03 Aug 0.8 06:21:26 10° W 06:25:34 84° S 06:29:44 10° E visible
04 Aug 2.3 04:36:21 31° ESE 04:36:21 31° ESE 04:38:43 10° E visible
04 Aug 0.8 06:11:44 10° W 06:15:52 88° S 06:20:02 10° E visible
